Content
SEND FEEDBACK

Daily
Averages
Monthly
Summary
Poland

LEGNICA, POLAND


Home > Europe > Poland
Elevation: 407 feet     Latitude: 51 12N     Longitude: 016 12E

WEATHER
 
SELECT A DAY
Number of Records: 262,241;   Date Range: 7/1/96 - 10/20/14
 
SHARE

PRINT THIS DATA

[ ← Previous Day ]
WEATHER ALMANAC - JANUARY 31, 2013
[ Next Day → ]
[ °C ]   °F
Weather ElementAverageHighLow
Temperature45.6 °F48.2 °F (10:30 am)42.8 °F (8:00 pm)
Dewpoint32.9 °F37.4 °F (12:30 am)26.6 °F (3:00 pm)
Humidity60.3 %76 % (12:30 am)41 % (1:00 pm)
Barometer29.73 in29.82 in (10:00 am)29.65 in (8:30 pm)
Wind Speed18.3 mph28.8 mph (12:00 pm)
Wind Gust47.2 mph (12:00 pm)
Weather ElementAverage
Visibility11.1 mi
Wind DirectionW (266.9 °)

Weather ElementTotal
Precipitation---
Heating Degree Days19.5 (Base 65)
Averaged from 54 records on January 31, 2013
WEATHER CONDITIONS BREAKOUT
WIND DIRECTION BREAKOUT
WEATHER BY HOUR - JANUARY 31, 2013
[ °C ]   °F
Local TimeTemperatureDewpointHumidityBarometerVisibilityWind DirectionWind SpeedGust SpeedPrecipitationEventsConditions
12:30 AM44.6 °F37.4 °F76 %29.71 in6.2 miWest (280°)20.7 mphScattered Clouds
1:00 AM43.0 °F37.0 °F74 %29.76 in31.0 miWest (280°)17.9 mphPartly Cloudy
1:00 AM44.6 °F37.4 °F76 %29.74 in6.2 miWest (280°)18.4 mphPartly Cloudy
1:30 AM44.6 °F37.4 °F76 %29.74 in6.2 miWest (280°)18.4 mphPartly Cloudy
2:00 AM44.6 °F35.6 °F71 %29.74 inWest (260°)13.8 mphClear
2:30 AM44.6 °F35.6 °F71 %29.74 inWest (260°)13.8 mphClear
3:00 AM44.6 °F35.6 °F71 %29.74 inWest (260°)12.7 mphClear
3:30 AM44.6 °F35.6 °F71 %29.74 inWest (260°)16.1 mphClear
4:00 AM44.0 °F34.0 °F58 %29.77 in31.0 miWest (260°)20.1 mphPartly Cloudy
4:00 AM46.4 °F33.8 °F62 %29.74 inWest (260°)18.4 mph32.2 mphClear
4:30 AM46.4 °F33.8 °F62 %29.74 inWest (270°)20.7 mphClear
5:00 AM46.4 °F33.8 °F62 %29.77 in6.2 miWest (270°)20.7 mph32.2 mphMostly Cloudy
5:30 AM44.6 °F35.6 °F71 %29.77 in6.2 miWest (280°)18.4 mphMostly Cloudy
6:00 AM44.6 °F33.8 °F66 %29.77 in6.2 miWest (270°)18.4 mphMostly Cloudy
6:30 AM44.6 °F33.8 °F66 %29.77 in6.2 miWest (270°)18.4 mphScattered Clouds
7:00 AM44.0 °F33.0 °F54 %29.77 in31.0 miWest (270°)17.9 mphMostly Cloudy
7:00 AM44.6 °F33.8 °F66 %29.77 in6.2 miWest (270°)20.7 mph32.2 mphMostly Cloudy
7:30 AM44.6 °F32.0 °F61 %29.77 in6.2 miWest (270°)20.7 mphScattered Clouds
8:00 AM44.6 °F32.0 °F61 %29.77 in6.2 miWest (270°)20.7 mph34.5 mphMostly Cloudy
8:30 AM46.4 °F32.0 °F57 %29.77 in6.2 miWest (270°)23.0 mph35.7 mphMostly Cloudy
9:00 AM46.4 °F32.0 °F57 %29.77 in6.2 miWest (280°)24.2 mph35.7 mphMostly Cloudy
9:30 AM46.4 °F32.0 °F57 %29.80 in6.2 miWest (280°)26.5 mph43.7 mphMostly Cloudy
10:00 AM45.0 °F32.0 °F50 %29.82 in31.0 miWest (270°)24.6 mphMostly Cloudy
10:00 AM46.4 °F32.0 °F57 %29.80 in6.2 miWest (280°)24.2 mph36.8 mphMostly Cloudy
10:30 AM48.2 °F32.0 °F54 %29.80 in6.2 miWest (280°)24.2 mph40.3 mphMostly Cloudy
11:00 AM48.2 °F32.0 °F54 %29.80 in6.2 miWest (280°)24.2 mph42.6 mphMostly Cloudy
11:30 AM48.2 °F30.2 °F50 %29.80 in6.2 miWest (280°)25.3 mph41.4 mphMostly Cloudy
12:00 PM48.2 °F30.2 °F50 %29.80 in6.2 miWest (280°)28.8 mph47.2 mphPartly Cloudy
12:30 PM48.2 °F30.2 °F50 %29.77 in6.2 miWest (280°)20.7 mph32.2 mphPartly Cloudy
1:00 PM47.0 °F31.0 °F41 %29.79 in31.0 miWest (270°)17.9 mphScattered Clouds
1:00 PM48.2 °F30.2 °F50 %29.77 in6.2 miWest (280°)21.9 mph33.4 mphPartly Cloudy
2:00 PM48.2 °F28.4 °F46 %29.77 in6.2 miWest (270°)16.1 mphPartly Cloudy
2:30 PM48.2 °F28.4 °F46 %29.74 inWest (270°)17.3 mphClear
3:00 PM48.2 °F26.6 °F43 %29.74 inWest (260°)13.8 mphClear
3:30 PM48.2 °F26.6 °F43 %29.74 inWest (270°)13.8 mphClear
4:00 PM46.0 °F30.0 °F42 %29.73 in31.0 miWSW (240°)13.4 mphMostly Cloudy
4:00 PM48.2 °F28.4 °F46 %29.71 inWSW (250°)11.5 mphClear
4:30 PM46.4 °F30.2 °F53 %29.71 inWSW (240°)10.4 mphClear
5:00 PM44.6 °F32.0 °F61 %29.71 inWSW (240°)8.1 mphClear
5:30 PM44.6 °F30.2 °F57 %29.71 inWSW (240°)11.5 mphClear
6:00 PM44.6 °F30.2 °F57 %29.68 inWSW (240°)10.4 mphClear
6:30 PM46.4 °F30.2 °F53 %29.68 inWest (260°)12.7 mphClear
7:00 PM45.0 °F33.0 °F51 %29.69 in25.0 miWest (260°)20.1 mphRainLight Rain
7:00 PM46.4 °F32.0 °F57 %29.68 in6.2 miWest (260°)18.4 mphRainLight Rain
7:30 PM44.6 °F35.6 °F71 %29.68 in6.2 miWest (270°)20.7 mphRainLight Rain
8:00 PM42.8 °F35.6 °F76 %29.68 in6.2 miWest (260°)12.7 mphRainLight Rain
8:30 PM42.8 °F35.6 °F76 %29.65 in6.2 miWest (260°)15.0 mphRainLight Rain
9:00 PM44.6 °F35.6 °F71 %29.65 in6.2 miWest (260°)12.7 mphMostly Cloudy
9:30 PM46.4 °F33.8 °F62 %29.65 in6.2 miWest (270°)16.1 mphRainLight Rain
10:00 PM44.0 °F35.0 °F61 %29.66 in31.0 miWest (260°)20.1 mphRainLight Rain
10:00 PM44.6 °F33.8 °F66 %29.65 in6.2 miWest (270°)20.7 mphScattered Clouds
10:30 PM44.6 °F35.6 °F71 %29.65 in6.2 miWest (270°)18.4 mph29.9 mphRainLight Rain
11:00 PM44.6 °F35.6 °F71 %29.65 in6.2 miWest (270°)23.0 mphRainLight Rain
11:30 PM42.8 °F35.6 °F76 %29.65 in6.2 miWest (270°)19.6 mphScattered Clouds
Hourly data recorded from EPWR, located miles away from Legnica, Poland







STORIES FROM OUR PARTNERS